Location: Most
(50.5133°N, 13.6207°E)
Time: 23:51:35
(UTC+01:00)

ISS - Visible Passes

Search period start: 26 January 2021 00:00
Search period end: 05 February 2021 00:00
Orbit: 418 x 421 km, 51.6° (Epoch: 27 January)

Date Brightness Start Highest point End Pass type
(mag) Time Alt. Az. Time Alt. Az. Time Alt. Az.
26 Jan -3.8 18:48:04 10° W 18:51:28 72° N 18:51:38 69° NNE visible
27 Jan -3.7 18:00:42 10° W 18:04:06 78° N 18:06:15 21° ENE visible
27 Jan -1.5 19:37:39 10° WNW 19:39:13 25° WNW 19:39:13 25° WNW visible
28 Jan -3.9 18:50:17 10° W 18:53:41 74° N 18:53:50 72° NE visible
29 Jan -3.7 18:02:55 10° W 18:06:17 70° N 18:08:28 20° E visible
29 Jan -1.5 19:39:47 10° WNW 19:41:27 26° W 19:41:27 26° W visible
30 Jan -3.9 18:52:25 10° WNW 18:55:48 82° SSW 18:56:07 71° SE visible
31 Jan -3.8 18:05:01 10° WNW 18:08:26 83° N 18:10:50 18° E visible
31 Jan -1.5 19:41:58 10° W 19:43:49 25° WSW 19:43:49 25° WSW visible
01 Feb -3.0 18:54:31 10° W 18:57:47 47° SSW 18:58:36 38° SSE visible
02 Feb -3.4 18:07:05 10° WNW 18:10:27 64° SSW 18:13:29 12° ESE visible
02 Feb -1.1 19:44:32 10° W 19:46:29 17° SW 19:46:29 17° SW visible
03 Feb -1.6 18:56:47 10° W 18:59:34 24° SW 19:01:30 15° S visible
04 Feb -2.1 18:09:11 10° W 18:12:17 34° SSW 18:15:22 10° SE visible
